Location: Newark
(35.9031°N, 139.7175°E)
Time: 22:10:03
(UTC+00:00)

LightSail 2 - Visible Passes

Search period start: 06 April 2020 00:00
Search period end: 16 April 2020 00:00
Orbit: 694 x 724 km, 24.0° (Epoch: 06 April)

Date Brightness Start Highest point End Pass type
(mag) Time Alt. Az. Time Alt. Az. Time Alt. Az.
06 Apr 7.0 19:37:24 10° SW 19:40:47 18° S 19:44:11 10° SE visible
07 Apr 7.0 18:40:44 15° S 18:41:43 16° SSE 18:44:44 10° SE visible
08 Apr 6.8 19:23:55 11° SW 19:27:22 20° S 19:31:03 10° SE visible
09 Apr 6.8 18:28:12 19° S 18:28:17 19° S 18:31:47 10° SE visible
10 Apr 6.7 19:11:21 14° SW 19:13:57 21° S 19:17:40 10° SE visible
11 Apr 6.8 18:15:39 20° SSE 18:15:39 20° SSE 18:18:33 10° SE visible
12 Apr 6.7 18:58:51 17° SSW 19:00:30 19° S 19:04:04 10° SE visible
13 Apr 7.0 18:03:13 17° SSE 18:03:13 17° SSE 18:05:04 10° SE visible
13 Apr 7.0 19:43:27 10° SW 19:46:06 14° SSW 19:48:43 10° SSE visible
14 Apr 6.8 18:46:31 17° SSW 18:46:59 17° S 18:50:09 10° SSE visible
15 Apr 7.5 17:50:59 11° SSE 17:50:59 11° SSE 17:51:21 10° SE visible
15 Apr 7.2 19:31:49 10° SSW 19:32:31 10° SSW 19:33:13 10° S visible
